Regional Weather Roundup
Issued by NWS

Home | Current Version | Previous Version | Text Only | Print | Product List | Glossary On
Versions: 1 2 3 4 5 6 7 8 9 10 11 12 13 14 15 16 17 18 19 20 21 22 23 24 25 26 27 28 29 30 31 32 33 34 35 36 37 38 39 40 41 42 43 44 45 46 47 48 49 50
524
ASUS42 KFFC 241710
RWRGA
WEATHER ROUNDUP FOR GEORGIA
NATIONAL WEATHER SERVICE PEACHTREE CITY GA
100 PM EDT FRI MAR 24 2017

NOTE: "FAIR" INDICATES FEW OR NO CLOUDS BELOW 12,000 FEET WITH NO
SIGNIFICANT WEATHER AND/OR OBSTRUCTIONS TO VISIBILITY.

* = USE WITH CAUTION. THE STATIONS MARKED WITH AN ASTERISK MAY NOT
REPORT WEATHER SUCH AS PRECIPITATION, FOG, OR THUNDER AND ARE NOT
QUALITY CONTROLLED BY NWS.

THE REMARK "TC" DENOTES TEMPERATURE READING IN DEGREES CELSIUS.

GAZ001>058-241800-
NORTH GEORGIA

CITY           SKY/WX    TMP DP  RH WIND       PRES   REMARKS
ATLANTA        MOSUNNY   67  48  50 SE14G22   30.41F
ATHENS         MOSUNNY   63  47  55 CALM      30.45F
CHAMBLEE       SUNNY     66  47  50 SE15G21   30.41F
PEACHTREE CITY SUNNY     69  48  47 SE9G23    30.41F
ROME           PTSUNNY   68  50  52 S12       30.37F
WEST ATLANTA   PTSUNNY   68  48  48 S12       30.40F
GAINESVILLE    PTSUNNY   63  46  54 SE10      30.45F
CARTERSVILLE   CLOUDY    64  49  57 SE10G17   30.40F


CITY           SKY/WX    TMP DP  RH WIND       PRES   REMARKS
DALTON*        CLOUDY    61  48  63 SE10      30.40F
LAWRENCEVILLE* MOSUNNY   64  48  55 S7        30.43F
MARIETTA       MOSUNNY   67  48  50 S10       30.40F
KENNESAW*      MOSUNNY   66  48  52 SE9G18    30.43F
CANTON*        MOSUNNY   64  41  42 SE9G20    30.43F
$$

GAZ059>098-102>109-241800-
CENTRAL GEORGIA

CITY           SKY/WX    TMP DP  RH WIND       PRES   REMARKS
AUGUSTA-BUSH   SUNNY     74  47  38 S15       30.44F
AUGUSTA-DANIEL SUNNY     72  46  39 S12       30.46F
COLUMBUS       PTSUNNY   71  49  45 S12G22    30.38F
MACON          MOSUNNY   71  51  49 SE13G22   30.42F
ROBINS AFB     SUNNY     73  51  46 SE17G24   30.41F


CITY           SKY/WX    TMP DP  RH WIND       PRES   REMARKS
LAGRANGE*      PTSUNNY   71  54  54 S16G22    30.38F
SYLVANIA*      MOSUNNY  N/A N/A N/A S6        30.45F
MILLEDGEVILLE* SUNNY     70  54  56 CALM      30.43F
$$

GAZ099>101-110>166-241800-
SOUTH GEORGIA

CITY           SKY/WX    TMP DP  RH WIND       PRES   REMARKS
SAVANNAH       PTSUNNY   73  49  42 E15G23    30.46F
VALDOSTA       PTSUNNY   72  52  49 SE12      30.39F
ALMA           MOSUNNY   74  51  44 SE10      30.42F
ST SIMONS      SUNNY     72  55  55 E10       30.44S
FT STEWART     PTSUNNY   73  49  44 E17       30.42F
ALBANY         MOSUNNY   75  52  44 S18G26    30.41F
HUNTER AFB     MOSUNNY   73  54  51 SE10      30.43F
MOODY AFB      PTSUNNY   74  51  44 SE13      30.38F
BRUNSWICK      PTSUNNY   73  55  53 E12G21    30.44F


CITY           SKY/WX    TMP DP  RH WIND       PRES   REMARKS
BAINBRIDGE*    SUNNY     77  54  44 S10       30.38F
MOULTRIE*      MOSUNNY   73  52  46 S10       30.40F
VIDALIA*       SUNNY     73  48  40 SE13      30.44F
WAYCROSS*      PTSUNNY   77  54  43 E13G18    30.42F
DOUGLAS*       MOSUNNY   73  46  38 S7G18     30.43F
$$




USA.gov is the U.S. government's official web portal to all federal, state and local government web resources and services.